Time,TemperatureF,DewpointF,PressureIn,WindDirection,WindDirectionDegrees,WindSpeedMPH,WindSpeedGustMPH,Humidity,HourlyPrecipIn,Conditions,Clouds,dailyrainin,SoftwareType,DateUTC
2013-01-12 00:00:00,44.2,43.7,30.00,SSW,195,3.5,0.0,98,0.00,BKN,,0.39,WeatherDisplay:10.37,2013-01-12 05:00:00,
2013-01-12 00:01:00,44.6,44.1,30.00,WSW,239,3.5,0.0,98,0.00,RA,,0.00,WeatherDisplay:10.37,2013-01-12 05:01:00,
2013-01-12 00:02:00,45.0,44.4,30.00,SW,225,2.7,0.0,98,0.00,RA,,0.00,WeatherDisplay:10.37,2013-01-12 05:02:00,
2013-01-12 00:03:00,45.1,44.6,30.00,SSW,213,3.5,0.0,98,0.00,RA,,0.00,WeatherDisplay:10.37,2013-01-12 05:03:00,
2013-01-12 00:08:00,45.3,44.8,30.00,SW,217,5.8,5.8,98,0.00,RA,,0.00,WeatherDisplay:10.37,2013-01-12 05:08:00,
2013-01-12 00:13:00,45.1,44.6,30.00,SW,226,2.3,2.3,98,0.00,BKN,,0.00,WeatherDisplay:10.37,2013-01-12 05:13:00,
2013-01-12 00:18:00,46.0,45.5,30.00,WSW,247,5.8,5.8,98,0.00,BKN,,0.00,WeatherDisplay:10.37,2013-01-12 05:18:00,
2013-01-12 00:23:00,45.7,45.1,30.00,SW,230,5.8,5.8,98,0.00,OVC,,0.00,WeatherDisplay:10.37,2013-01-12 05:23:00,
2013-01-12 00:28:00,45.1,44.6,30.00,West,266,4.6,0.0,98,0.00,OVC,,0.00,WeatherDisplay:10.37,2013-01-12 05:28:00,
2013-01-12 00:33:00,44.8,44.3,30.00,SSW,199,0.0,0.0,98,0.00,OVC,,0.00,WeatherDisplay:10.37,2013-01-12 05:33:00,
2013-01-12 00:38:00,45.0,44.4,30.00,SSW,199,0.0,0.0,98,0.00,OVC,,0.00,WeatherDisplay:10.37,2013-01-12 05:38:00,
2013-01-12 00:43:00,44.4,43.9,30.00,SW,227,3.5,0.0,98,0.00,OVC,,0.00,WeatherDisplay:10.37,2013-01-12 05:43:00,
2013-01-12 00:48:00,44.1,43.5,30.00,SW,234,4.6,0.0,98,0.00,OVC,,0.00,WeatherDisplay:10.37,2013-01-12 05:48:00,
2013-01-12 00:53:00,43.9,43.4,30.00,SW,234,2.3,0.0,98,0.00,BKN,,0.00,WeatherDisplay:10.37,2013-01-12 05:53:00,
2013-01-12 00:58:00,43.7,43.2,30.00,SW,234,0.0,0.0,98,0.00,BKN,,0.00,WeatherDisplay:10.37,2013-01-12 05:58:00,
2013-01-12 01:03:00,44.2,43.7,30.00,SW,221,3.5,0.0,98,0.00,BKN,,0.00,WeatherDisplay:10.37,2013-01-12 06:03:00,
2013-01-12 01:08:00,45.7,45.1,30.00,SW,221,0.0,0.0,98,0.00,BKN,,0.00,WeatherDisplay:10.37,2013-01-12 06:08:00,
2013-01-12 01:13:00,45.9,45.3,30.00,WSW,240,0.0,0.0,98,0.00,BKN,,0.00,WeatherDisplay:10.37,2013-01-12 06:13:00,
2013-01-12 01:18:00,46.4,45.9,30.00,WSW,240,4.6,0.0,98,0.00,BKN,,0.00,WeatherDisplay:10.37,2013-01-12 06:18:00,
2013-01-12 01:23:00,46.9,46.4,30.00,WSW,240,2.3,0.0,98,0.00,BKN,,0.00,WeatherDisplay:10.37,2013-01-12 06:23:00,
2013-01-12 01:28:00,47.3,46.8,30.00,SW,229,0.0,0.0,98,0.00,BKN,,0.00,WeatherDisplay:10.37,2013-01-12 06:28:00,
2013-01-12 01:33:00,46.2,45.7,30.00,SW,218,5.8,5.8,98,0.00,BKN,,0.00,WeatherDisplay:10.37,2013-01-12 06:33:00,
2013-01-12 01:38:00,45.3,44.8,30.00,SW,218,0.0,0.0,98,0.00,BKN,,0.00,WeatherDisplay:10.37,2013-01-12 06:38:00,
2013-01-12 01:43:00,45.1,44.6,30.00,SW,236,0.0,0.0,98,0.00,BKN,,0.00,WeatherDisplay:10.37,2013-01-12 06:43:00,
2013-01-12 01:48:00,44.8,44.3,30.00,SW,235,2.2,0.0,98,0.00,BKN,,0.00,WeatherDisplay:10.37,2013-01-12 06:48:00,
2013-01-12 01:53:00,44.1,43.5,30.00,SSW,205,3.5,0.0,98,0.00,BKN,,0.00,WeatherDisplay:10.37,2013-01-12 06:53:00,
2013-01-12 01:58:00,44.2,43.7,30.00,SSW,205,3.5,3.5,98,0.00,BKN,,0.00,WeatherDisplay:10.37,2013-01-12 06:58:00,
2013-01-12 02:03:00,45.1,44.6,30.00,SW,223,3.5,0.0,98,0.00,BKN,,0.00,WeatherDisplay:10.37,2013-01-12 07:03:00,
2013-01-12 02:08:00,44.8,44.3,30.00,SW,223,3.5,0.0,98,0.00,BKN,,0.00,WeatherDisplay:10.37,2013-01-12 07:08:00,
2013-01-12 02:13:00,45.0,44.4,30.00,SW,223,0.0,0.0,98,0.00,BKN,,0.00,WeatherDisplay:10.37,2013-01-12 07:13:00,
2013-01-12 02:18:00,45.5,45.0,30.00,WSW,244,5.8,5.8,98,0.00,BKN,,0.00,WeatherDisplay:10.37,2013-01-12 07:18:00,
2013-01-12 02:23:00,45.7,45.1,30.00,South,187,5.8,5.8,98,0.00,BKN,,0.00,WeatherDisplay:10.37,2013-01-12 07:23:00,
2013-01-12 02:28:00,45.7,45.1,30.00,SW,227,5.8,0.0,98,0.00,BKN,,0.00,WeatherDisplay:10.37,2013-01-12 07:28:00,
2013-01-12 02:33:00,46.2,45.7,30.03,South,184,4.6,4.6,98,0.00,BKN,,0.00,WeatherDisplay:10.37,2013-01-12 07:33:00,
2013-01-12 02:38:00,46.2,45.7,30.03,SW,224,3.5,0.0,98,0.00,BKN,,0.00,WeatherDisplay:10.37,2013-01-12 07:38:00,
2013-01-12 02:43:00,46.8,46.2,30.03,SW,221,3.5,0.0,98,0.00,BKN,,0.00,WeatherDisplay:10.37,2013-01-12 07:43:00,
2013-01-12 02:48:00,46.4,45.9,30.03,SW,222,5.8,0.0,98,0.00,BKN,,0.00,WeatherDisplay:10.37,2013-01-12 07:48:00,
2013-01-12 02:53:00,46.2,45.7,30.03,South,175,4.6,0.0,98,0.00,BKN,,0.00,WeatherDisplay:10.37,2013-01-12 07:53:00,
2013-01-12 02:58:00,46.0,45.5,30.03,SSW,209,2.7,0.0,98,0.00,BKN,,0.00,WeatherDisplay:10.37,2013-01-12 07:58:00,
2013-01-12 03:03:00,45.5,45.0,30.00,SW,217,2.7,0.0,98,0.00,BKN,,0.00,WeatherDisplay:10.37,2013-01-12 08:03:00,
2013-01-12 03:08:00,45.7,45.1,30.00,SW,223,0.0,0.0,98,0.00,BKN,,0.00,WeatherDisplay:10.37,2013-01-12 08:08:00,
2013-01-12 03:13:00,46.4,45.9,30.00,SW,230,2.3,0.0,98,0.00,BKN,,0.00,WeatherDisplay:10.37,2013-01-12 08:13:00,
2013-01-12 03:18:00,47.5,46.9,30.03,WSW,240,5.8,5.8,98,0.00,BKN,,0.00,WeatherDisplay:10.37,2013-01-12 08:18:00,
2013-01-12 03:23:00,48.0,47.5,30.03,WSW,244,4.0,0.0,98,0.00,BKN,,0.00,WeatherDisplay:10.37,2013-01-12 08:23:00,
2013-01-12 03:28:00,47.8,47.3,30.03,WSW,250,2.3,0.0,98,0.00,BKN,,0.00,WeatherDisplay:10.37,2013-01-12 08:28:00,
2013-01-12 03:33:00,47.7,47.1,30.03,SW,223,4.0,0.0,98,0.00,BKN,,0.00,WeatherDisplay:10.37,2013-01-12 08:33:00,
2013-01-12 03:38:00,46.9,46.4,30.03,SW,221,5.8,5.8,98,0.00,BKN,,0.00,WeatherDisplay:10.37,2013-01-12 08:38:00,
2013-01-12 03:43:00,46.8,46.2,30.03,SW,223,6.9,6.9,98,0.00,BKN,,0.00,WeatherDisplay:10.37,2013-01-12 08:43:00,
2013-01-12 03:48:00,46.2,45.7,30.03,SW,230,3.5,0.0,98,0.00,BKN,,0.00,WeatherDisplay:10.37,2013-01-12 08:48:00,
2013-01-12 03:53:00,46.6,46.0,30.03,WSW,257,0.0,0.0,98,0.00,BKN,,0.00,WeatherDisplay:10.37,2013-01-12 08:53:00,
2013-01-12 03:58:00,47.3,46.8,30.03,SW,221,3.5,0.0,98,0.00,BKN,,0.00,WeatherDisplay:10.37,2013-01-12 08:58:00,
2013-01-12 04:03:00,46.8,46.2,30.03,SW,221,3.5,3.6,98,0.00,BKN,,0.00,WeatherDisplay:10.37,2013-01-12 09:03:00,
2013-01-12 04:08:00,46.9,46.4,30.03,SW,224,3.5,0.0,98,0.00,BKN,,0.00,WeatherDisplay:10.37,2013-01-12 09:08:00,
2013-01-12 04:13:00,46.8,46.2,30.03,SSW,211,2.3,0.0,98,0.00,BKN,,0.00,WeatherDisplay:10.37,2013-01-12 09:13:00,
2013-01-12 04:18:00,47.3,46.8,30.03,WSW,237,6.9,6.9,98,0.00,BKN,,0.00,WeatherDisplay:10.37,2013-01-12 09:18:00,
2013-01-12 04:23:00,47.7,47.1,30.03,SW,218,3.5,0.0,98,0.00,OVC,,0.00,WeatherDisplay:10.37,2013-01-12 09:23:00,
2013-01-12 04:28:00,48.7,48.2,30.03,SW,231,4.0,4.0,98,0.00,OVC,,0.00,WeatherDisplay:10.37,2013-01-12 09:28:00,
2013-01-12 04:33:00,49.5,48.9,30.03,WSW,252,6.3,6.3,98,0.00,OVC,,0.00,WeatherDisplay:10.37,2013-01-12 09:33:00,
2013-01-12 04:38:00,50.4,49.8,30.03,SSW,195,4.6,4.6,98,0.00,OVC,,0.00,WeatherDisplay:10.37,2013-01-12 09:38:00,
2013-01-12 04:43:00,50.7,50.2,30.03,West,260,5.4,0.0,98,0.00,OVC,,0.00,WeatherDisplay:10.37,2013-01-12 09:43:00,
2013-01-12 04:48:00,50.7,50.2,30.03,West,263,8.1,8.1,98,0.00,OVC,,0.00,WeatherDisplay:10.37,2013-01-12 09:48:00,
2013-01-12 04:53:00,50.7,50.2,30.03,WSW,252,5.8,0.0,98,0.00,OVC,,0.00,WeatherDisplay:10.37,2013-01-12 09:53:00,
2013-01-12 04:58:00,50.9,50.4,30.03,WSW,239,5.8,5.8,98,0.00,OVC,,0.00,WeatherDisplay:10.37,2013-01-12 09:58:00,
2013-01-12 05:03:00,51.6,51.1,30.00,NW,320,3.5,0.0,98,0.00,OVC,,0.00,WeatherDisplay:10.37,2013-01-12 10:03:00,
2013-01-12 05:08:00,51.8,51.3,30.00,NW,322,5.8,5.8,98,0.00,OVC,,0.00,WeatherDisplay:10.37,2013-01-12 10:08:00,
2013-01-12 05:13:00,51.6,51.1,30.00,West,267,4.6,0.0,98,0.00,OVC,,0.00,WeatherDisplay:10.37,2013-01-12 10:13:00,
2013-01-12 05:18:00,51.6,51.1,30.03,WSW,258,5.8,0.0,98,0.00,OVC,,0.00,WeatherDisplay:10.37,2013-01-12 10:18:00,
2013-01-12 05:23:00,51.6,51.1,30.03,WNW,294,5.8,0.0,98,0.00,OVC,,0.00,WeatherDisplay:10.37,2013-01-12 10:23:00,
2013-01-12 05:28:00,51.6,51.1,30.03,WNW,283,0.0,0.0,98,0.00,OVC,,0.00,WeatherDisplay:10.37,2013-01-12 10:28:00,
2013-01-12 05:33:00,51.6,51.1,30.03,West,270,2.2,0.0,98,0.00,OVC,,0.00,WeatherDisplay:10.37,2013-01-12 10:33:00,
2013-01-12 05:38:00,51.3,50.7,30.03,WNW,291,5.8,0.0,98,0.00,OVC,,0.00,WeatherDisplay:10.37,2013-01-12 10:38:00,
2013-01-12 05:43:00,51.1,50.5,30.03,WNW,284,4.6,0.0,98,0.00,OVC,,0.00,WeatherDisplay:10.37,2013-01-12 10:43:00,
2013-01-12 05:48:00,51.1,50.5,30.03,WSW,244,3.5,0.0,98,0.00,OVC,,0.00,WeatherDisplay:10.37,2013-01-12 10:48:00,
2013-01-12 05:53:00,50.9,50.4,30.03,WSW,247,4.0,0.0,98,0.00,BKN,,0.00,WeatherDisplay:10.37,2013-01-12 10:53:00,
2013-01-12 05:58:00,51.3,50.7,30.03,WSW,255,4.0,0.0,98,0.00,BKN,,0.00,WeatherDisplay:10.37,2013-01-12 10:58:00,
2013-01-12 06:03:00,51.8,51.3,30.03,West,260,4.0,4.0,98,0.00,BKN,,0.00,WeatherDisplay:10.37,2013-01-12 11:03:00,
2013-01-12 06:08:00,52.2,51.6,30.03,WSW,237,6.9,6.9,98,0.00,BKN,,0.00,WeatherDisplay:10.37,2013-01-12 11:08:00,
2013-01-12 06:13:00,52.7,52.2,30.03,West,271,4.6,0.0,98,0.00,BKN,,0.00,WeatherDisplay:10.37,2013-01-12 11:13:00,
2013-01-12 06:18:00,52.9,52.3,30.03,WSW,240,4.6,0.0,98,0.00,BKN,,0.00,WeatherDisplay:10.37,2013-01-12 11:18:00,
2013-01-12 06:23:00,53.1,52.5,30.03,West,279,8.1,8.1,98,0.00,BKN,,0.00,WeatherDisplay:10.37,2013-01-12 11:23:00,
2013-01-12 06:28:00,53.2,52.7,30.03,WSW,240,3.1,0.0,98,0.00,BKN,,0.00,WeatherDisplay:10.37,2013-01-12 11:28:00,
2013-01-12 06:33:00,53.2,52.7,30.03,WNW,294,2.2,0.0,98,0.00,BKN,,0.00,WeatherDisplay:10.37,2013-01-12 11:33:00,
2013-01-12 06:38:00,53.2,52.7,30.03,WSW,249,3.5,0.0,98,0.00,OVC,,0.00,WeatherDisplay:10.37,2013-01-12 11:38:00,
2013-01-12 06:43:00,53.2,52.7,30.03,WSW,248,0.0,0.0,98,0.00,OVC,,0.00,WeatherDisplay:10.37,2013-01-12 11:43:00,
2013-01-12 06:48:00,53.8,53.2,30.03,West,280,8.1,0.0,98,0.00,OVC,,0.00,WeatherDisplay:10.37,2013-01-12 11:48:00,
2013-01-12 06:53:00,53.8,53.2,30.03,SW,233,6.9,6.9,98,0.00,OVC,,0.00,WeatherDisplay:10.37,2013-01-12 11:53:00,
2013-01-12 06:58:00,53.8,53.2,30.03,WSW,248,7.2,0.0,98,0.00,OVC,,0.00,WeatherDisplay:10.37,2013-01-12 11:58:00,
2013-01-12 07:03:00,53.8,53.2,30.03,SW,232,4.5,0.0,98,0.00,OVC,,0.00,WeatherDisplay:10.37,2013-01-12 12:03:00,
2013-01-12 07:08:00,53.6,53.0,30.03,West,280,3.5,3.5,98,0.00,OVC,,0.00,WeatherDisplay:10.37,2013-01-12 12:08:00,
2013-01-12 07:13:00,53.8,53.2,30.03,WSW,258,6.9,0.0,98,0.00,OVC,,0.00,WeatherDisplay:10.37,2013-01-12 12:13:00,
2013-01-12 07:18:00,53.8,53.2,30.03,West,274,3.5,3.5,98,0.00,OVC,,0.00,WeatherDisplay:10.37,2013-01-12 12:18:00,
2013-01-12 07:23:00,53.6,53.0,30.03,WNW,286,5.8,0.0,98,0.00,OVC,,0.00,WeatherDisplay:10.37,2013-01-12 12:23:00,
2013-01-12 07:28:00,53.4,52.9,30.03,WSW,246,9.2,9.2,98,0.00,OVC,,0.00,WeatherDisplay:10.37,2013-01-12 12:28:00,
2013-01-12 07:33:00,53.4,52.9,30.06,WSW,248,9.2,0.0,98,0.00,OVC,,0.00,WeatherDisplay:10.37,2013-01-12 12:33:00,
2013-01-12 07:38:00,53.1,52.5,30.06,West,271,8.0,0.0,98,0.00,OVC,,0.00,WeatherDisplay:10.37,2013-01-12 12:38:00,
2013-01-12 07:43:00,52.9,52.3,30.06,West,263,9.2,0.0,98,0.00,OVC,,0.00,WeatherDisplay:10.37,2013-01-12 12:43:00,
2013-01-12 07:48:00,52.9,52.3,30.03,NW,310,10.4,10.4,98,0.00,OVC,,0.00,WeatherDisplay:10.37,2013-01-12 12:48:00,
2013-01-12 07:53:00,52.9,52.3,30.03,WNW,289,3.6,4.0,98,0.00,OVC,,0.00,WeatherDisplay:10.37,2013-01-12 12:53:00,
2013-01-12 07:58:00,53.1,52.5,30.03,West,266,5.8,0.0,98,0.00,OVC,,0.00,WeatherDisplay:10.37,2013-01-12 12:58:00,
2013-01-12 08:03:00,53.1,52.5,30.03,West,264,10.4,10.4,98,0.00,OVC,,0.00,WeatherDisplay:10.37,2013-01-12 13:03:00,
2013-01-12 08:08:00,53.1,52.5,30.03,West,265,9.2,9.2,98,0.00,OVC,,0.00,WeatherDisplay:10.37,2013-01-12 13:08:00,
2013-01-12 08:13:00,53.4,52.9,30.03,NW,324,5.8,0.0,98,0.00,OVC,,0.00,WeatherDisplay:10.37,2013-01-12 13:13:00,
2013-01-12 08:18:00,53.4,52.9,30.03,West,278,3.5,3.5,98,0.00,OVC,,0.00,WeatherDisplay:10.37,2013-01-12 13:18:00,
2013-01-12 08:23:00,53.4,52.9,30.03,WNW,289,8.1,8.1,98,0.00,OVC,,0.00,WeatherDisplay:10.37,2013-01-12 13:23:00,
2013-01-12 08:28:00,53.4,52.9,30.03,West,262,5.8,0.0,98,0.00,OVC,,0.00,WeatherDisplay:10.37,2013-01-12 13:28:00,
2013-01-12 08:33:00,53.2,52.7,30.03,NW,326,9.2,9.2,98,0.00,OVC,,0.00,WeatherDisplay:10.37,2013-01-12 13:33:00,
2013-01-12 08:38:00,52.9,52.3,30.03,West,276,9.2,9.2,98,0.00,OVC,,0.00,WeatherDisplay:10.37,2013-01-12 13:38:00,
2013-01-12 08:43:00,53.1,52.5,30.03,West,266,6.9,6.9,98,0.00,OVC,,0.00,WeatherDisplay:10.37,2013-01-12 13:43:00,
2013-01-12 08:48:00,53.2,52.7,30.06,NW,311,8.1,0.0,98,0.00,OVC,,0.00,WeatherDisplay:10.37,2013-01-12 13:48:00,
2013-01-12 08:53:00,53.2,52.7,30.06,WNW,288,3.5,0.0,98,0.00,OVC,,0.00,WeatherDisplay:10.37,2013-01-12 13:53:00,
2013-01-12 08:58:00,53.2,52.7,30.06,WSW,251,0.0,0.0,98,0.00,OVC,,0.00,WeatherDisplay:10.37,2013-01-12 13:58:00,
2013-01-12 09:03:00,53.4,52.9,30.06,West,269,6.9,6.9,98,0.00,OVC,,0.00,WeatherDisplay:10.37,2013-01-12 14:03:00,
2013-01-12 09:08:00,53.4,52.9,30.06,West,277,5.8,0.0,98,0.00,OVC,,0.00,WeatherDisplay:10.37,2013-01-12 14:08:00,
2013-01-12 09:13:00,53.6,53.0,30.06,NW,305,2.3,0.0,98,0.00,OVC,,0.00,WeatherDisplay:10.37,2013-01-12 14:13:00,
2013-01-12 09:18:00,53.6,53.0,30.06,West,264,8.1,8.1,98,0.00,OVC,,0.00,WeatherDisplay:10.37,2013-01-12 14:18:00,
2013-01-12 09:23:00,53.4,52.9,30.06,West,280,3.5,0.0,98,0.00,OVC,,0.00,WeatherDisplay:10.37,2013-01-12 14:23:00,
2013-01-12 09:28:00,53.2,52.7,30.06,WSW,251,0.0,0.0,98,0.00,OVC,,0.00,WeatherDisplay:10.37,2013-01-12 14:28:00,
2013-01-12 09:33:00,53.2,52.7,30.06,West,262,10.9,0.0,98,0.00,OVC,,0.00,WeatherDisplay:10.37,2013-01-12 14:33:00,
2013-01-12 09:39:00,53.2,52.7,30.06,West,269,2.3,0.0,98,0.00,OVC,,0.00,WeatherDisplay:10.37,2013-01-12 14:39:00,
2013-01-12 09:44:00,53.2,52.7,30.06,SSW,213,5.8,5.8,98,0.00,OVC,,0.00,WeatherDisplay:10.37,2013-01-12 14:44:00,
2013-01-12 09:49:00,53.4,52.9,30.06,West,265,3.6,0.0,98,0.00,OVC,,0.00,WeatherDisplay:10.37,2013-01-12 14:49:00,
2013-01-12 09:54:00,53.8,53.2,30.06,WSW,241,3.5,0.0,98,0.00,OVC,,0.00,WeatherDisplay:10.37,2013-01-12 14:54:00,
2013-01-12 09:59:00,53.8,53.2,30.06,SW,229,6.9,0.0,98,0.00,OVC,,0.00,WeatherDisplay:10.37,2013-01-12 14:59:00,
2013-01-12 10:04:00,54.0,53.4,30.06,West,281,5.8,0.0,98,0.00,OVC,,0.00,WeatherDisplay:10.37,2013-01-12 15:04:00,
2013-01-12 10:09:00,54.0,53.4,30.06,West,275,5.8,0.0,98,0.00,OVC,,0.00,WeatherDisplay:10.37,2013-01-12 15:09:00,
2013-01-12 10:14:00,54.0,53.4,30.06,WSW,240,5.8,0.0,98,0.00,OVC,,0.00,WeatherDisplay:10.37,2013-01-12 15:14:00,
2013-01-12 10:19:00,53.8,53.2,30.06,West,260,4.6,0.0,98,0.00,OVC,,0.00,WeatherDisplay:10.37,2013-01-12 15:19:00,
2013-01-12 10:24:00,54.0,53.4,30.06,West,266,5.8,0.0,98,0.00,OVC,,0.00,WeatherDisplay:10.37,2013-01-12 15:24:00,
2013-01-12 10:29:00,54.1,53.6,30.06,WNW,284,2.3,0.0,98,0.00,OVC,,0.00,WeatherDisplay:10.37,2013-01-12 15:29:00,
2013-01-12 10:34:00,54.5,53.9,30.06,SW,218,0.0,0.0,98,0.00,OVC,,0.00,WeatherDisplay:10.37,2013-01-12 15:34:00,
2013-01-12 10:39:00,54.5,53.9,30.06,WSW,246,8.1,0.0,98,0.00,OVC,,0.00,WeatherDisplay:10.37,2013-01-12 15:39:00,
2013-01-12 10:44:00,54.7,54.1,30.06,WSW,243,0.0,0.0,98,0.00,OVC,,0.00,WeatherDisplay:10.37,2013-01-12 15:44:00,
2013-01-12 10:49:00,54.9,54.3,30.06,SW,223,4.0,0.0,98,0.00,OVC,,0.00,WeatherDisplay:10.37,2013-01-12 15:49:00,
2013-01-12 10:54:00,55.0,54.5,30.06,West,280,5.8,5.8,98,0.00,OVC,,0.00,WeatherDisplay:10.37,2013-01-12 15:54:00,
2013-01-12 10:59:00,55.2,54.7,30.06,WSW,253,10.9,10.9,98,0.00,OVC,,0.00,WeatherDisplay:10.37,2013-01-12 15:59:00,
2013-01-12 11:04:00,55.6,55.0,30.06,WSW,251,5.8,5.8,98,0.00,OVC,,0.00,WeatherDisplay:10.37,2013-01-12 16:04:00,
2013-01-12 11:09:00,55.9,55.4,30.06,WSW,252,4.6,4.6,98,0.00,OVC,,0.00,WeatherDisplay:10.37,2013-01-12 16:09:00,
2013-01-12 11:14:00,56.1,55.6,30.06,West,279,6.9,0.0,98,0.00,OVC,,0.00,WeatherDisplay:10.37,2013-01-12 16:14:00,
2013-01-12 11:19:00,56.1,55.6,30.06,WNW,282,5.4,0.0,98,0.00,OVC,,0.00,WeatherDisplay:10.37,2013-01-12 16:19:00,
2013-01-12 11:24:00,56.3,55.7,30.06,SW,224,5.8,5.8,98,0.00,OVC,,0.00,WeatherDisplay:10.37,2013-01-12 16:24:00,
2013-01-12 11:29:00,56.3,55.7,30.06,WSW,258,6.3,6.3,98,0.00,OVC,,0.00,WeatherDisplay:10.37,2013-01-12 16:29:00,
2013-01-12 11:34:00,56.1,55.6,30.06,WSW,254,9.6,9.6,98,0.00,OVC,,0.00,WeatherDisplay:10.37,2013-01-12 16:34:00,
2013-01-12 11:39:00,56.1,55.6,30.06,West,268,3.5,0.0,98,0.00,OVC,,0.00,WeatherDisplay:10.37,2013-01-12 16:39:00,
2013-01-12 11:44:00,55.9,55.4,30.06,SW,224,4.0,4.0,98,0.00,OVC,,0.00,WeatherDisplay:10.37,2013-01-12 16:44:00,
2013-01-12 11:49:00,55.9,55.4,30.06,SW,222,5.8,5.8,98,0.00,OVC,,0.00,WeatherDisplay:10.37,2013-01-12 16:49:00,
2013-01-12 11:54:00,55.8,55.2,30.06,WSW,237,5.8,5.8,98,0.00,OVC,,0.00,WeatherDisplay:10.37,2013-01-12 16:54:00,
2013-01-12 11:59:00,55.4,54.8,30.06,WSW,239,8.1,8.1,98,0.00,OVC,,0.00,WeatherDisplay:10.37,2013-01-12 16:59:00,
2013-01-12 12:04:00,55.0,54.5,30.03,WSW,237,5.8,5.8,98,0.00,OVC,,0.00,WeatherDisplay:10.37,2013-01-12 17:04:00,
2013-01-12 12:09:00,54.9,54.3,30.03,SW,235,4.9,4.9,98,0.00,OVC,,0.00,WeatherDisplay:10.37,2013-01-12 17:09:00,
2013-01-12 12:14:00,54.7,54.1,30.03,SSW,198,9.2,9.2,98,0.00,OVC,,0.00,WeatherDisplay:10.37,2013-01-12 17:14:00,
2013-01-12 12:19:00,54.5,53.9,30.03,SW,228,8.1,8.1,98,0.00,OVC,,0.00,WeatherDisplay:10.37,2013-01-12 17:19:00,
2013-01-12 12:24:00,54.0,53.4,30.03,WSW,253,8.1,8.1,98,0.00,OVC,,0.00,WeatherDisplay:10.37,2013-01-12 17:24:00,
2013-01-12 12:29:00,54.3,53.8,30.03,SW,220,5.8,5.8,98,0.00,OVC,,0.00,WeatherDisplay:10.37,2013-01-12 17:29:00,
2013-01-12 12:34:00,54.5,53.9,30.03,WSW,238,5.8,5.8,98,0.00,OVC,,0.00,WeatherDisplay:10.37,2013-01-12 17:34:00,
2013-01-12 12:39:00,54.5,53.9,30.03,WSW,256,3.5,3.5,98,0.00,OVC,,0.00,WeatherDisplay:10.37,2013-01-12 17:39:00,
2013-01-12 12:44:00,54.7,54.1,30.03,WSW,247,8.1,8.1,98,0.00,OVC,,0.00,WeatherDisplay:10.37,2013-01-12 17:44:00,
2013-01-12 12:49:00,54.9,54.3,30.03,SW,230,5.8,5.8,98,0.00,OVC,,0.00,WeatherDisplay:10.37,2013-01-12 17:49:00,
2013-01-12 12:54:00,55.4,54.8,30.03,South,190,3.6,3.6,98,0.00,OVC,,0.00,WeatherDisplay:10.37,2013-01-12 17:54:00,
2013-01-12 12:59:00,55.0,54.5,30.03,SW,222,8.1,8.1,98,0.00,OVC,,0.00,WeatherDisplay:10.37,2013-01-12 17:59:00,
2013-01-12 13:04:00,55.2,54.7,30.03,WSW,238,8.3,8.3,98,0.00,OVC,,0.00,WeatherDisplay:10.37,2013-01-12 18:04:00,
2013-01-12 13:09:00,55.4,54.8,30.03,SW,233,9.2,9.2,98,0.00,OVC,,0.00,WeatherDisplay:10.37,2013-01-12 18:09:00,
2013-01-12 13:14:00,55.8,55.2,30.03,SSW,200,8.1,8.1,98,0.00,OVC,,0.00,WeatherDisplay:10.37,2013-01-12 18:14:00,
2013-01-12 13:19:00,55.8,55.2,30.03,SSW,198,5.8,5.8,98,0.00,OVC,,0.00,WeatherDisplay:10.37,2013-01-12 18:19:00,
2013-01-12 13:24:00,55.8,55.2,30.03,SSW,211,5.8,5.8,98,0.00,OVC,,0.00,WeatherDisplay:10.37,2013-01-12 18:24:00,
2013-01-12 13:29:00,56.1,55.6,30.03,SSW,196,5.8,5.8,98,0.00,OVC,,0.00,WeatherDisplay:10.37,2013-01-12 18:29:00,
2013-01-12 13:34:00,56.5,55.9,30.03,WSW,247,10.4,10.4,98,0.00,OVC,,0.00,WeatherDisplay:10.37,2013-01-12 18:34:00,
2013-01-12 13:39:00,56.8,56.3,30.03,WSW,252,8.1,8.1,98,0.00,OVC,,0.00,WeatherDisplay:10.37,2013-01-12 18:39:00,
2013-01-12 13:44:00,57.6,57.0,30.03,SSW,210,5.8,5.8,98,0.00,OVC,,0.00,WeatherDisplay:10.37,2013-01-12 18:44:00,
2013-01-12 13:49:00,57.6,57.0,30.03,SSW,207,7.6,7.6,98,0.00,OVC,,0.00,WeatherDisplay:10.37,2013-01-12 18:49:00,
2013-01-12 13:54:00,57.4,56.8,30.03,WSW,238,2.3,2.3,98,0.00,OVC,,0.00,WeatherDisplay:10.37,2013-01-12 18:54:00,
2013-01-12 13:59:00,57.4,56.8,30.03,WSW,243,5.8,5.8,98,0.00,OVC,,0.00,WeatherDisplay:10.37,2013-01-12 18:59:00,
2013-01-12 14:04:00,57.2,56.6,30.03,SSW,205,8.1,8.1,98,0.00,CLR,,0.00,WeatherDisplay:10.37,2013-01-12 19:04:00,
2013-01-12 14:09:00,57.6,57.0,30.03,SW,219,6.3,6.3,98,0.00,CLR,,0.00,WeatherDisplay:10.37,2013-01-12 19:09:00,
2013-01-12 14:14:00,57.6,57.0,30.03,WSW,255,6.9,6.9,98,0.00,CLR,,0.00,WeatherDisplay:10.37,2013-01-12 19:14:00,
2013-01-12 14:19:00,57.9,57.4,30.03,SW,231,5.8,5.8,98,0.00,CLR,,0.00,WeatherDisplay:10.37,2013-01-12 19:19:00,
2013-01-12 14:24:00,58.1,57.5,30.03,SSW,210,8.3,8.3,98,0.00,CLR,,0.00,WeatherDisplay:10.37,2013-01-12 19:24:00,
2013-01-12 14:29:00,57.9,57.4,30.03,SSW,210,8.1,8.1,98,0.00,CLR,,0.00,WeatherDisplay:10.37,2013-01-12 19:29:00,
2013-01-12 14:34:00,57.6,57.0,30.03,WSW,257,5.8,5.8,98,0.00,CLR,,0.00,WeatherDisplay:10.37,2013-01-12 19:34:00,
2013-01-12 14:39:00,57.6,57.0,30.03,SW,226,5.8,5.8,98,0.00,CLR,,0.00,WeatherDisplay:10.37,2013-01-12 19:39:00,
2013-01-12 14:44:00,57.6,57.0,30.03,WSW,253,5.8,5.8,98,0.00,CLR,,0.00,WeatherDisplay:10.37,2013-01-12 19:44:00,
2013-01-12 14:49:00,57.7,57.2,30.03,WSW,257,5.8,5.8,98,0.00,CLR,,0.00,WeatherDisplay:10.37,2013-01-12 19:49:00,
2013-01-12 14:54:00,57.7,56.0,30.03,WSW,249,5.8,5.8,94,0.00,CLR,,0.00,WeatherDisplay:10.37,2013-01-12 19:54:00,
2013-01-12 14:59:00,57.7,55.7,30.03,WSW,252,3.5,3.5,93,0.00,CLR,,0.00,WeatherDisplay:10.37,2013-01-12 19:59:00,
2013-01-12 15:04:00,57.6,55.3,30.06,SW,221,3.5,3.6,92,0.00,CLR,,0.00,WeatherDisplay:10.37,2013-01-12 20:04:00,
2013-01-12 15:09:00,57.2,54.9,30.06,SW,225,5.8,5.8,92,0.00,CLR,,0.00,WeatherDisplay:10.37,2013-01-12 20:09:00,
2013-01-12 15:14:00,56.8,54.2,30.06,WSW,238,5.8,5.8,91,0.00,CLR,,0.00,WeatherDisplay:10.37,2013-01-12 20:14:00,
2013-01-12 15:19:00,56.3,53.7,30.06,WSW,252,5.8,5.8,91,0.00,CLR,,0.00,WeatherDisplay:10.37,2013-01-12 20:19:00,
2013-01-12 15:24:00,56.3,53.7,30.06,WSW,253,4.0,4.0,91,0.00,CLR,,0.00,WeatherDisplay:10.37,2013-01-12 20:24:00,
2013-01-12 15:29:00,55.8,52.9,30.06,WSW,253,3.5,3.5,90,0.00,CLR,,0.00,WeatherDisplay:10.37,2013-01-12 20:29:00,
2013-01-12 15:34:00,55.2,52.3,30.06,WSW,253,5.8,5.8,90,0.00,CLR,,0.00,WeatherDisplay:10.37,2013-01-12 20:34:00,
2013-01-12 15:39:00,54.7,51.8,30.06,WSW,253,3.5,3.5,90,0.00,CLR,,0.00,WeatherDisplay:10.37,2013-01-12 20:39:00,
2013-01-12 15:44:00,54.3,51.7,30.06,WSW,253,3.6,3.6,91,0.00,CLR,,0.00,WeatherDisplay:10.37,2013-01-12 20:44:00,
2013-01-12 15:49:00,54.1,51.6,30.06,SW,231,5.8,5.8,91,0.00,CLR,,0.00,WeatherDisplay:10.37,2013-01-12 20:49:00,
2013-01-12 15:54:00,54.0,51.7,30.06,SW,235,3.5,3.5,92,0.00,CLR,,0.00,WeatherDisplay:10.37,2013-01-12 20:54:00,
2013-01-12 15:59:00,54.1,51.9,30.06,SW,230,5.8,5.8,92,0.00,CLR,,0.00,WeatherDisplay:10.37,2013-01-12 20:59:00,
2013-01-12 16:04:00,54.0,51.7,30.06,West,261,3.5,3.5,92,0.00,CLR,,0.00,WeatherDisplay:10.37,2013-01-12 21:04:00,
2013-01-12 16:09:00,53.8,51.5,30.06,SW,236,3.5,3.5,92,0.00,CLR,,0.00,WeatherDisplay:10.37,2013-01-12 21:09:00,
2013-01-12 16:14:00,53.6,51.6,30.06,SW,228,3.5,3.5,93,0.00,CLR,,0.00,WeatherDisplay:10.37,2013-01-12 21:14:00,
2013-01-12 16:19:00,53.4,51.7,30.06,WSW,238,5.8,5.8,94,0.00,CLR,,0.00,WeatherDisplay:10.37,2013-01-12 21:19:00,
2013-01-12 16:24:00,53.2,51.6,30.06,WSW,238,5.8,5.8,94,0.00,CLR,,0.00,WeatherDisplay:10.37,2013-01-12 21:24:00,
2013-01-12 16:29:00,53.1,51.4,30.06,WSW,238,3.5,3.5,94,0.00,CLR,,0.00,WeatherDisplay:10.37,2013-01-12 21:29:00,
2013-01-12 16:34:00,52.5,50.8,30.06,WSW,251,5.4,5.4,94,0.00,CLR,,0.00,WeatherDisplay:10.37,2013-01-12 21:34:00,
2013-01-12 16:39:00,52.3,50.7,30.06,WSW,251,3.5,3.5,94,0.00,CLR,,0.00,WeatherDisplay:10.37,2013-01-12 21:39:00,
2013-01-12 16:44:00,52.3,51.0,30.06,WSW,251,3.5,3.5,95,0.00,CLR,,0.00,WeatherDisplay:10.37,2013-01-12 21:44:00,
2013-01-12 16:49:00,51.6,50.2,30.06,WSW,251,3.6,3.6,95,0.00,CLR,,0.00,WeatherDisplay:10.37,2013-01-12 21:49:00,
2013-01-12 16:54:00,51.6,50.2,30.06,WSW,251,5.8,5.8,95,0.00,CLR,,0.00,WeatherDisplay:10.37,2013-01-12 21:54:00,
2013-01-12 16:59:00,50.7,49.3,30.06,WSW,251,3.6,3.6,95,0.00,CLR,,0.00,WeatherDisplay:10.37,2013-01-12 21:59:00,
2013-01-12 17:04:00,50.4,49.3,30.06,WSW,251,3.5,3.5,96,0.00,CLR,,0.00,WeatherDisplay:10.37,2013-01-12 22:04:00,
2013-01-12 17:10:00,50.4,49.3,30.06,WSW,251,2.3,2.3,96,0.00,CLR,,0.00,WeatherDisplay:10.37,2013-01-12 22:10:00,
2013-01-12 17:15:00,50.4,49.5,30.06,WSW,251,3.5,3.5,97,0.00,CLR,,0.00,WeatherDisplay:10.37,2013-01-12 22:15:00,
2013-01-12 17:20:00,50.0,49.2,30.06,WSW,251,3.5,3.5,97,0.00,CLR,,0.00,WeatherDisplay:10.37,2013-01-12 22:20:00,
2013-01-12 17:25:00,49.8,49.3,30.06,WSW,251,3.5,0.0,98,0.00,CLR,,0.00,WeatherDisplay:10.37,2013-01-12 22:25:00,
2013-01-12 17:30:00,49.6,49.1,30.06,WSW,251,3.5,0.0,98,0.00,CLR,,0.00,WeatherDisplay:10.37,2013-01-12 22:30:00,
2013-01-12 17:35:00,49.6,49.1,30.06,WSW,251,3.6,0.0,98,0.00,CLR,,0.00,WeatherDisplay:10.37,2013-01-12 22:35:00,
2013-01-12 17:40:00,49.6,49.1,30.06,WSW,251,3.5,3.5,98,0.00,CLR,,0.00,WeatherDisplay:10.37,2013-01-12 22:40:00,
2013-01-12 17:45:00,49.3,48.7,30.06,SSE,154,4.9,4.9,98,0.00,CLR,,0.00,WeatherDisplay:10.37,2013-01-12 22:45:00,
2013-01-12 17:50:00,48.6,48.0,30.06,South,170,5.8,5.8,98,0.00,CLR,,0.00,WeatherDisplay:10.37,2013-01-12 22:50:00,
2013-01-12 17:55:00,48.4,47.8,30.06,SSE,155,6.3,6.3,98,0.00,CLR,,0.00,WeatherDisplay:10.37,2013-01-12 22:55:00,
2013-01-12 18:00:00,48.4,47.8,30.06,South,169,5.8,5.8,98,0.00,CLR,,0.00,WeatherDisplay:10.37,2013-01-12 23:00:00,
2013-01-12 18:05:00,48.2,47.7,30.06,SSE,152,5.8,5.8,98,0.00,CLR,,0.00,WeatherDisplay:10.37,2013-01-12 23:05:00,
2013-01-12 18:10:00,48.4,47.8,30.06,SSE,148,5.8,5.8,98,0.00,CLR,,0.00,WeatherDisplay:10.37,2013-01-12 23:10:00,
2013-01-12 18:15:00,48.4,47.8,30.06,SSE,154,5.8,5.8,98,0.00,CLR,,0.00,WeatherDisplay:10.37,2013-01-12 23:15:00,
2013-01-12 18:21:00,48.7,48.2,30.06,South,169,5.8,5.8,98,0.00,CLR,,0.00,WeatherDisplay:10.37,2013-01-12 23:21:00,
2013-01-12 18:26:00,47.7,47.1,30.06,SSE,167,5.8,5.8,98,0.00,CLR,,0.00,WeatherDisplay:10.37,2013-01-12 23:26:00,
2013-01-12 18:31:00,47.3,46.8,30.06,SE,134,6.3,6.3,98,0.00,CLR,,0.00,WeatherDisplay:10.37,2013-01-12 23:31:00,
2013-01-12 18:36:00,47.5,46.9,30.06,South,175,7.2,7.2,98,0.00,CLR,,0.00,WeatherDisplay:10.37,2013-01-12 23:36:00,
2013-01-12 18:41:00,47.8,47.3,30.06,South,183,5.8,5.8,98,0.00,CLR,,0.00,WeatherDisplay:10.37,2013-01-12 23:41:00,
2013-01-12 18:46:00,47.7,47.1,30.03,SE,145,5.8,5.8,98,0.00,CLR,,0.00,WeatherDisplay:10.37,2013-01-12 23:46:00,
2013-01-12 18:51:00,47.5,46.9,30.03,SSE,155,5.8,5.8,98,0.00,CLR,,0.00,WeatherDisplay:10.37,2013-01-12 23:51:00,
2013-01-12 18:56:00,47.3,46.8,30.03,SSE,154,6.3,6.3,98,0.00,CLR,,0.00,WeatherDisplay:10.37,2013-01-12 23:56:00,
2013-01-12 19:01:00,48.0,47.5,30.06,South,172,5.8,5.8,98,0.00,CLR,,0.00,WeatherDisplay:10.37,2013-01-13 00:01:00,
2013-01-12 19:06:00,48.7,48.2,30.06,SSE,167,5.8,5.8,98,0.00,CLR,,0.00,WeatherDisplay:10.37,2013-01-13 00:06:00,
2013-01-12 19:11:00,48.9,48.4,30.06,SSE,164,5.4,5.4,98,0.00,CLR,,0.00,WeatherDisplay:10.37,2013-01-13 00:11:00,
2013-01-12 19:16:00,48.7,48.2,30.03,SSW,200,5.8,5.8,98,0.00,CLR,,0.00,WeatherDisplay:10.37,2013-01-13 00:16:00,
2013-01-12 19:21:00,48.4,47.8,30.03,SSW,198,5.8,5.8,98,0.00,CLR,,0.00,WeatherDisplay:10.37,2013-01-13 00:21:00,
2013-01-12 19:26:00,48.2,47.7,30.03,SSE,168,5.8,5.8,98,0.00,CLR,,0.00,WeatherDisplay:10.37,2013-01-13 00:26:00,
2013-01-12 19:31:00,48.6,48.0,30.03,SSE,148,5.8,5.8,98,0.00,CLR,,0.00,WeatherDisplay:10.37,2013-01-13 00:31:00,
2013-01-12 19:36:00,48.9,48.4,30.03,South,189,8.0,8.0,98,0.00,CLR,,0.00,WeatherDisplay:10.37,2013-01-13 00:36:00,
2013-01-12 19:41:00,49.1,48.6,30.03,SW,218,8.1,8.1,98,0.00,CLR,,0.00,WeatherDisplay:10.37,2013-01-13 00:41:00,
2013-01-12 19:46:00,49.3,48.7,30.03,SSW,203,5.8,5.8,98,0.00,CLR,,0.00,WeatherDisplay:10.37,2013-01-13 00:46:00,
2013-01-12 19:51:00,49.5,48.9,30.03,South,186,4.5,4.5,98,0.00,CLR,,0.00,WeatherDisplay:10.37,2013-01-13 00:51:00,
2013-01-12 19:56:00,48.9,48.4,30.03,SSW,194,5.8,5.8,98,0.00,CLR,,0.00,WeatherDisplay:10.37,2013-01-13 00:56:00,
2013-01-12 20:01:00,48.9,48.4,30.03,SSW,199,5.8,5.8,98,0.00,CLR,,0.00,WeatherDisplay:10.37,2013-01-13 01:01:00,
2013-01-12 20:06:00,48.6,48.0,30.03,SSW,197,8.1,8.1,98,0.00,CLR,,0.00,WeatherDisplay:10.37,2013-01-13 01:06:00,
2013-01-12 20:11:00,48.2,47.7,30.03,SSW,213,5.8,5.8,98,0.00,CLR,,0.00,WeatherDisplay:10.37,2013-01-13 01:11:00,
2013-01-12 20:16:00,48.7,48.2,30.03,SSW,204,5.8,5.8,98,0.00,CLR,,0.00,WeatherDisplay:10.37,2013-01-13 01:16:00,
2013-01-12 20:21:00,48.9,48.4,30.03,SSW,213,6.3,6.3,98,0.00,CLR,,0.00,WeatherDisplay:10.37,2013-01-13 01:21:00,
2013-01-12 20:26:00,49.3,48.7,30.03,SSW,195,5.8,5.8,98,0.00,CLR,,0.00,WeatherDisplay:10.37,2013-01-13 01:26:00,
2013-01-12 20:31:00,49.3,48.7,30.03,SSW,197,4.9,4.9,98,0.00,CLR,,0.00,WeatherDisplay:10.37,2013-01-13 01:31:00,
2013-01-12 20:36:00,48.6,48.0,30.03,South,182,6.3,6.3,98,0.00,CLR,,0.00,WeatherDisplay:10.37,2013-01-13 01:36:00,
2013-01-12 20:41:00,48.6,48.0,30.03,SSE,155,5.8,5.8,98,0.00,CLR,,0.00,WeatherDisplay:10.37,2013-01-13 01:41:00,
2013-01-12 20:46:00,49.1,48.6,30.03,SSE,155,5.8,5.8,98,0.00,CLR,,0.00,WeatherDisplay:10.37,2013-01-13 01:46:00,
2013-01-12 20:51:00,49.5,48.9,30.03,SSW,195,3.5,3.5,98,0.00,CLR,,0.00,WeatherDisplay:10.37,2013-01-13 01:51:00,
2013-01-12 20:56:00,49.5,48.9,30.03,South,178,5.8,5.8,98,0.00,CLR,,0.00,WeatherDisplay:10.37,2013-01-13 01:56:00,
2013-01-12 21:01:00,48.7,48.2,30.03,South,179,8.1,8.1,98,0.00,CLR,,0.00,WeatherDisplay:10.37,2013-01-13 02:01:00,
2013-01-12 21:06:00,48.7,48.2,30.03,SSE,159,5.8,5.8,98,0.00,CLR,,0.00,WeatherDisplay:10.37,2013-01-13 02:06:00,
2013-01-12 21:11:00,48.4,47.8,30.03,SSW,200,5.8,5.8,98,0.00,CLR,,0.00,WeatherDisplay:10.37,2013-01-13 02:11:00,
2013-01-12 21:16:00,48.7,48.2,30.03,South,169,8.1,8.1,98,0.00,CLR,,0.00,WeatherDisplay:10.37,2013-01-13 02:16:00,
2013-01-12 21:21:00,48.9,48.4,30.03,SSE,166,4.6,4.6,98,0.00,CLR,,0.00,WeatherDisplay:10.37,2013-01-13 02:21:00,
2013-01-12 21:26:00,49.3,48.7,30.03,SSE,167,3.5,3.5,98,0.00,CLR,,0.00,WeatherDisplay:10.37,2013-01-13 02:26:00,
2013-01-12 21:31:00,49.1,48.6,30.03,SSE,167,5.8,5.8,98,0.00,CLR,,0.00,WeatherDisplay:10.37,2013-01-13 02:31:00,
2013-01-12 21:36:00,48.9,48.4,30.03,South,172,5.8,5.8,98,0.00,CLR,,0.00,WeatherDisplay:10.37,2013-01-13 02:36:00,
2013-01-12 21:41:00,49.1,48.6,30.03,SSW,202,3.5,3.5,98,0.00,CLR,,0.00,WeatherDisplay:10.37,2013-01-13 02:41:00,
2013-01-12 21:46:00,49.8,49.3,30.03,SSW,202,4.9,4.9,98,0.00,CLR,,0.00,WeatherDisplay:10.37,2013-01-13 02:46:00,
2013-01-12 21:51:00,50.0,49.5,30.03,SSW,202,4.6,4.6,98,0.00,CLR,,0.00,WeatherDisplay:10.37,2013-01-13 02:51:00,
2013-01-12 21:56:00,50.2,49.6,30.03,SSW,202,4.0,4.0,98,0.00,CLR,,0.00,WeatherDisplay:10.37,2013-01-13 02:56:00,
2013-01-12 22:01:00,50.4,49.8,30.03,SSW,208,8.1,8.1,98,0.00,CLR,,0.00,WeatherDisplay:10.37,2013-01-13 03:01:00,
2013-01-12 22:06:00,50.2,49.6,30.03,SSW,201,6.3,6.3,98,0.00,CLR,,0.00,WeatherDisplay:10.37,2013-01-13 03:06:00,
2013-01-12 22:11:00,50.2,49.6,30.03,South,177,5.8,5.8,98,0.00,CLR,,0.00,WeatherDisplay:10.37,2013-01-13 03:11:00,
2013-01-12 22:16:00,50.0,49.5,30.03,SSE,165,5.8,5.8,98,0.00,CLR,,0.00,WeatherDisplay:10.37,2013-01-13 03:16:00,
2013-01-12 22:21:00,49.8,49.3,30.03,South,190,6.9,6.9,98,0.00,CLR,,0.00,WeatherDisplay:10.37,2013-01-13 03:21:00,
2013-01-12 22:26:00,49.8,49.3,30.03,South,172,5.8,5.8,98,0.00,CLR,,0.00,WeatherDisplay:10.37,2013-01-13 03:26:00,
2013-01-12 22:31:00,49.6,49.1,30.03,South,184,8.1,8.1,98,0.00,CLR,,0.00,WeatherDisplay:10.37,2013-01-13 03:31:00,
2013-01-12 22:37:00,50.0,49.5,30.03,South,177,5.8,5.8,98,0.00,CLR,,0.00,WeatherDisplay:10.37,2013-01-13 03:37:00,
2013-01-12 22:42:00,49.8,49.3,30.03,SSE,157,8.1,8.1,98,0.00,CLR,,0.00,WeatherDisplay:10.37,2013-01-13 03:42:00,
2013-01-12 22:47:00,50.2,49.6,30.00,SSE,166,8.1,8.1,98,0.00,CLR,,0.00,WeatherDisplay:10.37,2013-01-13 03:47:00,
2013-01-12 22:52:00,50.0,49.5,30.00,SSE,160,5.8,5.8,98,0.00,OVC,,0.00,WeatherDisplay:10.37,2013-01-13 03:52:00,
2013-01-12 22:57:00,49.6,49.1,30.00,SSE,168,5.8,5.8,98,0.00,OVC,,0.00,WeatherDisplay:10.37,2013-01-13 03:57:00,
2013-01-12 23:02:00,49.5,48.9,30.00,SSE,162,5.8,5.8,98,0.00,BKN,,0.00,WeatherDisplay:10.37,2013-01-13 04:02:00,
2013-01-12 23:07:00,49.5,48.9,30.00,South,178,5.8,5.8,98,0.00,BKN,,0.00,WeatherDisplay:10.37,2013-01-13 04:07:00,
2013-01-12 23:12:00,49.6,49.1,30.00,SSE,149,5.8,5.8,98,0.00,BKN,,0.00,WeatherDisplay:10.37,2013-01-13 04:12:00,
2013-01-12 23:17:00,49.5,48.9,30.00,SSE,150,5.8,5.8,98,0.00,BKN,,0.00,WeatherDisplay:10.37,2013-01-13 04:17:00,
2013-01-12 23:22:00,49.6,49.1,30.00,SSE,163,5.8,5.8,98,0.00,BKN,,0.00,WeatherDisplay:10.37,2013-01-13 04:22:00,
2013-01-12 23:27:00,49.1,48.6,30.00,SSE,159,5.8,5.8,98,0.00,BKN,,0.00,WeatherDisplay:10.37,2013-01-13 04:27:00,
2013-01-12 23:32:00,49.1,48.6,30.00,South,177,5.8,5.8,98,0.00,BKN,,0.00,WeatherDisplay:10.37,2013-01-13 04:32:00,
2013-01-12 23:37:00,48.9,48.4,30.00,SSW,194,5.8,5.8,98,0.00,BKN,,0.00,WeatherDisplay:10.37,2013-01-13 04:37:00,
2013-01-12 23:42:00,48.6,48.0,30.00,SSW,195,5.8,5.8,98,0.00,BKN,,0.00,WeatherDisplay:10.37,2013-01-13 04:42:00,
2013-01-12 23:47:00,48.6,48.0,30.00,SSW,213,5.8,5.8,98,0.00,BKN,,0.00,WeatherDisplay:10.37,2013-01-13 04:47:00,
2013-01-12 23:52:00,48.6,48.0,30.00,SSW,198,6.9,6.9,98,0.00,BKN,,0.00,WeatherDisplay:10.37,2013-01-13 04:52:00,
2013-01-12 23:57:00,48.9,48.4,30.00,SSW,196,5.8,5.8,98,0.00,BKN,,0.00,WeatherDisplay:10.37,2013-01-13 04:57:00,